SONATE-2

Last updated on Sun Aug 09 2026 00:03:16 GMT+0000 (Coordinated Universal Time)

1 59112U 24043Q 26220.39295370 .00026381 00000+0 29495-3 0 9992 2 59112 97.5572 14.1683 0005215 17.3006 342.8428 15.62715229136032
UTC large
Height (km)
Speed (km/s)
/
Latitude / Longitude
Inclination (degrees)
Orbital Period (minutes)
Azimuth
Elevation
Range (km)
Doppler Factor

Next 0 passes for location: London (51.5072 / 0.1276)

No passes found over London.
SONATE-2